Find Local Weather

World > North America > United States > North Carolina

Tarawa Terrace, North Carolina Regional Weather

Lat: 34.72N, Lon: 77.26W
Wx Zone: NCZ098
Feedback

Tarawa Terrace, NC Regional Weather

Expires:201905190700;;100087
ASUS42 KMHX 190625
RWRMHX
WEATHER ROUNDUP FOR EASTERN NORTH CAROLINA
NATIONAL WEATHER SERVICE NEWPORT/MOREHEAD CITY NC
200 AM EDT SUN MAY 19 2019

NOTE: "FAIR" INDICATES FEW OR NO CLOUDS BELOW 12,000 FEET
WITH NO SIGNIFICANT WEATHER AND/OR OBSTRUCTIONS TO VISIBILITY


NCZ011>013-027>030-043-044-078>080-089-090>093-098-190700-
COASTAL PLAIN
  
CITY           SKY/WX    TMP DP  RH WIND       PRES   REMARKS
AHOSKIE        FAIR      69  69  99 SE7       30.03F                  
CLINTON        FAIR      68  68 100 CALM      30.03F                  
ELIZABETHTOWN  FAIR      71  68  88 SE5       30.06F                  
GOLDSBORO      CLOUDY    75  62  64 SE3       30.01F                  
GREENVILLE     FAIR      73  68  83 S3        30.05F                  
HAVELOCK       FAIR      70  67  90 S6        30.06F                  
KENANSVILLE    FAIR      72  64  78 CALM      30.05F                  
KINSTON        FAIR      73  66  77 S5        30.05S                  
NEW BERN       FAIR      72  69  90 S5        30.06S                  
RICHLANDS      FAIR      73  69  87 S8        30.06F                  
ROCKY MOUNT    FAIR      69  67  93 CALM      30.03F                  
WASHINGTON     FAIR      73  69  88 SE3       30.05S                  
WHITEVILLE     FAIR      71  66  86 S3        30.05S                  

$$


SKY/WX - Weather  TMP - Temperature  DP - Dew Point  RH - Relative Humidity
WIND - Wind Direction/Speed PRES - Barometric Pressure VSB - Visibility
WCI - Wind Chill Index E13G22 Wind - East Wind 13 mph/Gusts of 22 mph